Вернуться в каталог

STARCLOUD-1

АктивенСвязьVLEO
NORAD 66303·PAYLOAD·🇺🇸 United States

Запущен Nov 2, 2025 с Cape Canaveral Space Force Station

Loading…

Ближайшие Пролёты (ближайшие 24 часа)

TLE

СвежийSource: Space-Track

Эпоха: Sep 13, 2026, 18:51 UTC

1 66303U 25248L   26256.78584761  .00004649  00000-0  21175-3 0  9998
2 66303  45.4041   4.4144 0005304 198.2278 161.8420 15.22074639 48030

Отслеживайте STARCLOUD-1 в реальном времени с AllMySat

Download on the App Store